#timestamp,LO_Frequency,Hit,StdDev 
1640379615.3,286046997.6,N
1640379635.1,286046996.3,N
1640379655.8,286046995.3,N
1640379675.7,286046997.9,N
1640379695.5,286046995.3,N
1640379715.4,286046997.6,N
1640379735.2,286046997.8,N
1640379755.0,286046995.3,N
1640379755.9,286046995.3,N
1640379775.8,286046996.8,N
1640379795.6,286046996.6,N
1640379815.4,286046998.7,N
1640379835.3,286047001.1,N
1640379855.1,286046996.7,N
1640379875.9,286046995.1,N
1640379895.7,286046997.3,N
1640379915.5,286046996.7,N
1640379935.4,286046999.6,N
1640379955.2,286046999.1,N
1640379975.0,286046999.3,N
1640379976.0,286046999.3,N
1640379995.8,286046999.5,N
1640380015.6,286046997.2,N
1640380035.5,286046996.5,N
1640380055.3,286046999.2,N
1640380075.1,286046999.1,N
1640380095.9,286046998.9,N
1640380115.7,286046998.1,N
1640380135.6,286046998.6,N
1640380155.4,286047001.1,N
1640380175.2,286046998.4,N
1640380195.1,286046998.7,N
1640380196.0,286046998.7,N
1640380215.8,286046998.7,N
1640380235.6,286046998.1,N
1640380255.5,286046998.5,N
1640380275.3,286046998.7,N
1640380295.2,286046998.4,N
1640380315.9,286046999.2,N
1640380335.7,286046998.2,N
1640380355.6,286046998.8,N
1640380375.4,286047000.9,N
1640380395.2,286046998.3,N
1640380415.1,286046998.5,N
1640380416.0,286046998.5,N
1640380435.8,286046998.1,N
1640380455.7,286046999.2,N
1640380475.5,286046999.5,N
1640380495.3,286047000.3,N
1640380515.2,286047001.2,N
1640380535.0,286046998.6,N
1640380535.9,286046998.6,N
1640380555.8,286046999.4,N
1640380575.6,286046999.5,N
1640380595.4,286046999.4,N
1640380615.3,286047000.8,N
1640380635.1,286046999.5,N
1640380655.8,286046999.0,N
1640380675.7,286046999.1,N
1640380695.5,286046999.1,N
1640380715.4,286046999.0,N
1640380735.2,286046999.1,N
1640380755.0,286046999.2,N
1640380755.9,286046999.2,N
1640380775.8,286046998.4,N
1640380795.6,286046999.4,N
1640380815.5,286047000.7,N
1640380835.3,286046998.5,N
1640380855.1,286046999.6,N
1640380875.9,286046999.1,N
1640380895.7,286046999.2,N
1640380915.5,286046999.2,N
1640380935.4,286046998.8,N
1640380955.2,286046998.9,N
1640380975.1,286046999.0,N
1640380976.0,286046999.0,N
1640380995.8,286046999.0,N
1640381015.7,286046998.4,N
1640381035.5,286046999.5,N
1640381055.3,286046998.9,N
1640381075.2,286046999.5,N
1640381095.9,286046999.1,N
1640381115.7,286046999.2,N
1640381135.6,286046999.1,N
1640381155.4,286046998.4,Y
1640381175.3,286046998.1,P
1640381195.1,286047000.5,N
1640381196.0,286047000.5,N
1640381215.8,286047002.3,N
1640381235.7,286047002.3,N
1640381255.5,286047004.3,N
1640381275.3,286047002.5,N
1640381295.2,286047002.0,N
1640381315.0,286047002.0,N
1640381315.9,286047002.0,N
1640381335.8,286047000.1,N
1640381355.6,286047000.0,N
1640381375.4,286047000.6,N
1640381395.3,286047000.3,N
1640381415.1,286047000.0,N
1640381435.9,286047002.1,N
1640381455.7,286047003.9,N
1640381475.5,286047001.8,N
1640381495.4,286047001.5,N
1640381515.2,286047002.5,N
1640381535.0,286047002.8,N
1640381536.0,286047002.8,N
1640381555.8,286047000.2,N
1640381575.6,286047002.8,N
1640381595.5,286047000.0,N
1640381615.3,286047000.6,N
1640381635.1,286047001.1,N
1640381655.9,286047001.1,N
1640381675.7,286047000.1,N
1640381695.6,286047002.8,N
1640381715.4,286047000.8,N
1640381735.2,286046998.2,N
1640381755.1,286046998.9,N
1640381756.0,286046998.9,N
1640381775.8,286046996.6,N
1640381795.6,286046999.0,N
1640381815.5,286046998.3,N
1640381835.3,286046998.3,N
1640381855.2,286047000.9,N
1640381875.9,286046998.1,N
1640381895.7,286047000.8,N
1640381915.6,286047000.9,N
1640381935.4,286047000.6,N
1640381955.3,286047000.1,N
1640381975.1,286047000.1,N
1640381995.8,286047002.0,N
1640382015.7,286047002.1,N
1640382035.5,286047001.7,N
1640382055.4,286047001.9,N
1640382075.2,286047002.2,N
1640382095.0,286047002.3,N
1640382095.9,286047002.3,N
1640382115.8,286047000.4,N
1640382135.6,286046998.6,N
1640382155.5,286046999.8,N
1640382175.3,286046998.7,N
1640382195.1,286046996.8,N
1640382215.9,286046997.2,N
1640382235.7,286046997.0,N
1640382255.5,286046998.9,N
1640382275.4,286046998.7,N
1640382295.2,286046998.7,N
1640382315.1,286046999.0,N
1640382316.0,286046999.0,N
1640382335.8,286046997.8,N
1640382355.6,286046997.7,N
1640382375.5,286046997.5,N
1640382395.3,286046995.4,N
1640382415.1,286046994.9,N
1640382435.9,286046997.9,N
1640382455.7,286046996.2,N
1640382475.6,286046995.1,N
1640382495.4,286046995.7,N
1640382515.2,286046997.5,N
1640382535.1,286046996.6,N
1640382536.0,286046996.6,N
1640382555.8,286046999.5,N
1640382575.7,286046996.8,N
1640382595.5,286046995.4,N
1640382615.3,286046997.5,N
1640382635.2,286046997.1,N
1640382655.9,286046995.6,N
1640382675.7,286046996.0,N
1640382695.6,286046993.7,Y
1640382715.4,286046998.7,P
1640382735.3,286046998.7,N
1640382755.1,286047000.7,N
1640382775.8,286046999.7,N
1640382795.7,286047001.6,N
1640382815.5,286047001.7,N
1640382835.4,286047002.2,N
1640382855.2,286047002.1,N
1640382875.0,286047004.4,N
1640382875.9,286047004.4,N
1640382895.8,286047000.3,N
1640382915.6,286047001.2,N
1640382935.5,286046999.9,N
1640382955.3,286047000.3,N
1640382975.1,286046998.1,N
1640382995.9,286047001.1,N
1640383015.7,286047011.9,Y
1640383035.5,286047001.0,P
1640383055.4,286046998.1,P
1640383075.2,286047001.1,N
1640383095.1,286047001.0,N
1640383096.0,286047001.0,N
1640383115.8,286046999.5,N
1640383135.6,286046997.6,N
1640383155.5,286046996.7,N
1640383175.3,286046997.4,N
1640383195.1,286046997.5,N
